Location: Bryzozowice
(50.3667°N, 18.9667°E)
Time: 06:33:49
(UTC+00:00)

ARGOS - Pass Details

Date: 24 January 2020
Orbit: 821 x 834 km, 98.5° (Epoch: 23 February)

Event Time Altitude Azimuth Distance (km) Brightness Sun altitude
Exits shadow 18:02:00 50° 29° (NNE) 1,055 3.4 -25.1°
Drops below altitude 10° 18:06:19 10° 352° (N) 2,446 5.7 -25.8°
Sets 18:08:43 0° 349° (NNW) 3,385 6.5 -26.2°
